User: anonymous   Login
Location: Trois-Rivi�res
(46.3500°N, 72.5500°W)
Time: 01:00:28
(UTC-04:00)
Language:

SJ-11-01 - Orbit

View from above orbital plane
View from above orbital plane
View from above satellite
View from above satellite

Ground track
Ground track

The orbit data is extracted from the following two-line orbital elements,

1 36088U 09061A   16238.85733105  .00000074  00000-0  25254-4 0  9996
2 36088  98.1819 285.3937 0012694 105.3720 254.8876 14.59862868361557
Epoch (UTC): 25 August 2016 20:34:33
Eccentricity: 0.0012694
inclination: 98.1819°
perigee height: 684 km
apogee height: 702 km
right ascension of ascending node: 285.3937°
argument of perigee: 105.3720°
revolutions per day: 14.59862868
mean anomaly at epoch: 254.8876°
orbit number at epoch: 36155

The dashed part of the orbit path shows where the satellite is in the earth's shadow,  

DLR